Time,TemperatureF,DewpointF,PressureIn,WindDirection,WindDirectionDegrees,WindSpeedMPH,WindSpeedGustMPH,Humidity,HourlyPrecipIn,Conditions,Clouds,dailyrainin,SoftwareType,DateUTC
2013-01-11 00:06:00,49.2,48.0,29.92,ENE,65,0.0,0.0,94,0.00,,,0.00,weatherlink.com 1.10,2013-01-11 06:06:00,
2013-01-11 00:21:00,48.9,48.0,29.93,ENE,67,0.0,0.0,95,0.00,,,0.00,weatherlink.com 1.10,2013-01-11 06:21:00,
2013-01-11 00:36:00,49.3,48.0,29.92,WSW,245,0.0,0.0,94,0.00,,,0.00,weatherlink.com 1.10,2013-01-11 06:36:00,
2013-01-11 00:53:00,48.9,47.0,29.93,WSW,245,0.0,0.0,94,0.00,,,0.00,weatherlink.com 1.10,2013-01-11 06:53:00,
2013-01-11 01:06:00,49.0,47.0,29.93,WSW,245,0.0,0.0,94,0.00,,,0.00,weatherlink.com 1.10,2013-01-11 07:06:00,
2013-01-11 01:21:00,48.6,47.0,29.93,WSW,245,0.0,0.0,94,0.00,,,0.00,weatherlink.com 1.10,2013-01-11 07:21:00,
2013-01-11 01:36:00,49.5,48.0,29.95,WSW,256,2.0,4.0,93,0.00,,,0.00,weatherlink.com 1.10,2013-01-11 07:36:00,
2013-01-11 01:51:00,50.2,48.0,29.95,West,276,2.0,5.0,91,0.00,,,0.00,weatherlink.com 1.10,2013-01-11 07:51:00,
2013-01-11 02:06:00,49.9,47.0,29.94,SW,235,3.0,4.0,91,0.00,,,0.00,weatherlink.com 1.10,2013-01-11 08:06:00,
2013-01-11 02:21:00,50.0,47.0,29.96,WSW,252,4.0,4.0,90,0.00,,,0.00,weatherlink.com 1.10,2013-01-11 08:21:00,
2013-01-11 02:36:00,49.7,47.0,29.96,WSW,249,2.0,4.0,90,0.00,,,0.00,weatherlink.com 1.10,2013-01-11 08:36:00,
2013-01-11 02:51:00,49.4,47.0,29.96,West,266,0.0,3.0,90,0.00,,,0.00,weatherlink.com 1.10,2013-01-11 08:51:00,
2013-01-11 03:06:00,48.4,46.0,29.96,West,270,0.0,1.0,91,0.00,,,0.00,weatherlink.com 1.10,2013-01-11 09:06:00,
2013-01-11 03:21:00,47.1,45.0,29.96,ENE,74,0.0,1.0,93,0.00,,,0.00,weatherlink.com 1.10,2013-01-11 09:21:00,
2013-01-11 03:36:00,46.1,45.0,29.95,ENE,74,0.0,0.0,94,0.00,,,0.00,weatherlink.com 1.10,2013-01-11 09:36:00,
2013-01-11 03:51:00,45.3,44.0,29.94,ESE,117,0.0,0.0,95,0.00,,,0.00,weatherlink.com 1.10,2013-01-11 09:51:00,
2013-01-11 04:08:00,45.1,44.0,29.93,ESE,117,0.0,0.0,96,0.00,,,0.00,weatherlink.com 1.10,2013-01-11 10:08:00,
2013-01-11 04:22:00,45.2,44.0,29.93,ESE,117,0.0,0.0,96,0.00,,,0.00,weatherlink.com 1.10,2013-01-11 10:22:00,
2013-01-11 04:37:00,45.1,44.0,29.94,NW,304,0.0,3.0,97,0.00,,,0.00,weatherlink.com 1.10,2013-01-11 10:37:00,
2013-01-11 04:52:00,45.1,44.0,29.95,NNW,328,0.0,1.0,97,0.00,,,0.00,weatherlink.com 1.10,2013-01-11 10:52:00,
2013-01-11 05:07:00,44.4,43.0,29.94,NNW,328,0.0,0.0,96,0.00,,,0.00,weatherlink.com 1.10,2013-01-11 11:07:00,
2013-01-11 05:21:00,44.0,43.0,29.94,WNW,297,0.0,1.0,97,0.00,,,0.00,weatherlink.com 1.10,2013-01-11 11:21:00,
2013-01-11 05:22:00,44.1,43.3,29.94,WNW,296,0.0,6.0,97,0.00,,,0.00,Wunderground v.1.15,2013-01-11 11:22:00,
2013-01-11 05:24:00,44.1,43.3,29.94,WNW,297,0.0,6.0,97,0.00,,,0.00,Wunderground v.1.15,2013-01-11 11:24:00,
2013-01-11 05:28:00,44.1,43.3,29.93,WNW,296,0.0,6.0,97,0.00,,,0.00,Wunderground v.1.15,2013-01-11 11:28:00,
2013-01-11 05:30:00,44.1,43.3,29.93,WNW,297,0.0,6.0,97,0.00,,,0.00,Wunderground v.1.15,2013-01-11 11:30:00,
2013-01-11 05:32:00,44.1,43.3,29.93,WNW,297,0.0,6.0,97,0.00,,,0.00,Wunderground v.1.15,2013-01-11 11:32:00,
2013-01-11 05:36:00,44.0,43.2,29.93,WNW,297,0.0,6.0,97,0.00,,,0.00,Wunderground v.1.15,2013-01-11 11:36:00,
2013-01-11 05:38:00,44.1,43.3,29.93,WNW,296,0.0,6.0,97,0.00,,,0.00,Wunderground v.1.15,2013-01-11 11:38:00,
2013-01-11 05:40:00,44.1,43.3,29.93,NW,308,0.0,6.0,97,0.00,,,0.00,Wunderground v.1.15,2013-01-11 11:40:00,
2013-01-11 05:46:00,44.3,43.5,29.92,NW,308,0.0,6.0,97,0.00,,,0.00,Wunderground v.1.15,2013-01-11 11:46:00,
2013-01-11 05:48:00,44.3,43.5,29.93,NW,308,0.0,6.0,97,0.00,,,0.00,Wunderground v.1.15,2013-01-11 11:48:00,
2013-01-11 05:52:00,44.4,44.0,29.93,NW,308,0.0,0.0,97,0.00,,,0.00,weatherlink.com 1.10,2013-01-11 11:52:00,
2013-01-11 05:54:00,44.4,43.6,29.93,NW,308,0.0,6.0,97,0.00,,,0.00,Wunderground v.1.15,2013-01-11 11:54:00,
2013-01-11 05:58:00,44.4,43.6,29.93,NW,308,0.0,6.0,97,0.00,,,0.00,Wunderground v.1.15,2013-01-11 11:58:00,
2013-01-11 06:02:00,44.4,43.6,29.93,NW,308,0.0,6.0,97,0.00,,,0.00,Wunderground v.1.15,2013-01-11 12:02:00,
2013-01-11 06:06:00,44.4,43.6,29.93,NW,308,0.0,6.0,97,0.00,,,0.00,Wunderground v.1.15,2013-01-11 12:06:00,
2013-01-11 06:08:00,44.4,43.9,29.93,NW,308,0.0,6.0,98,0.00,,,0.00,Wunderground v.1.15,2013-01-11 12:08:00,
2013-01-11 06:10:00,44.3,43.5,29.94,NW,308,0.0,6.0,97,0.00,,,0.00,Wunderground v.1.15,2013-01-11 12:10:00,
2013-01-11 06:14:00,44.4,43.9,29.94,South,186,0.0,0.0,98,0.00,,,0.00,Wunderground v.1.15,2013-01-11 12:14:00,
2013-01-11 06:16:00,44.4,43.9,29.94,South,186,0.0,0.0,98,0.00,,,0.00,Wunderground v.1.15,2013-01-11 12:16:00,
2013-01-11 06:20:00,44.4,43.9,29.94,South,186,0.0,0.0,98,0.00,,,0.00,Wunderground v.1.15,2013-01-11 12:20:00,
2013-01-11 06:22:00,44.4,43.9,29.94,South,186,0.0,0.0,98,0.00,,,0.00,Wunderground v.1.15,2013-01-11 12:22:00,
2013-01-11 06:26:00,44.5,44.0,29.94,South,186,0.0,0.0,98,0.00,,,0.00,Wunderground v.1.15,2013-01-11 12:26:00,
2013-01-11 06:28:00,44.5,44.0,29.94,South,186,0.0,0.0,98,0.00,,,0.00,Wunderground v.1.15,2013-01-11 12:28:00,
2013-01-11 06:32:00,44.6,44.1,29.94,South,186,0.0,0.0,98,0.00,,,0.00,Wunderground v.1.15,2013-01-11 12:32:00,
2013-01-11 06:34:00,44.6,44.1,29.94,South,186,0.0,0.0,98,0.00,,,0.00,Wunderground v.1.15,2013-01-11 12:34:00,
2013-01-11 06:38:00,44.6,44.1,29.95,South,186,0.0,0.0,98,0.00,,,0.00,Wunderground v.1.15,2013-01-11 12:38:00,
2013-01-11 06:40:00,44.6,44.1,29.95,South,186,0.0,0.0,98,0.00,,,0.00,Wunderground v.1.15,2013-01-11 12:40:00,
2013-01-11 06:42:00,44.6,44.1,29.95,South,186,0.0,0.0,98,0.00,,,0.00,Wunderground v.1.15,2013-01-11 12:42:00,
2013-01-11 06:44:00,44.6,44.1,29.95,South,186,0.0,0.0,98,0.00,,,0.00,Wunderground v.1.15,2013-01-11 12:44:00,
2013-01-11 06:48:00,44.4,43.6,29.95,South,186,0.0,0.0,97,0.00,,,0.00,Wunderground v.1.15,2013-01-11 12:48:00,
2013-01-11 06:50:00,44.3,43.5,29.95,South,186,0.0,0.0,97,0.00,,,0.00,Wunderground v.1.15,2013-01-11 12:50:00,
2013-01-11 06:52:00,44.2,43.4,29.95,South,186,0.0,0.0,97,0.00,,,0.00,Wunderground v.1.15,2013-01-11 12:52:00,
2013-01-11 06:54:00,44.1,43.3,29.95,South,186,0.0,0.0,97,0.00,,,0.00,Wunderground v.1.15,2013-01-11 12:54:00,
2013-01-11 06:56:00,44.0,43.2,29.95,South,186,0.0,0.0,97,0.00,,,0.00,Wunderground v.1.15,2013-01-11 12:56:00,
2013-01-11 07:00:00,43.9,43.1,29.96,South,186,0.0,0.0,97,0.00,,,0.00,Wunderground v.1.15,2013-01-11 13:00:00,
2013-01-11 07:04:00,43.7,42.9,29.96,South,186,0.0,2.0,97,0.00,,,0.00,Wunderground v.1.15,2013-01-11 13:04:00,
2013-01-11 07:06:00,43.6,42.8,29.96,South,186,0.0,2.0,97,0.00,,,0.00,Wunderground v.1.15,2013-01-11 13:06:00,
2013-01-11 07:08:00,43.5,42.7,29.96,South,186,0.0,2.0,97,0.00,,,0.00,Wunderground v.1.15,2013-01-11 13:08:00,
2013-01-11 07:10:00,43.3,42.5,29.96,South,186,0.0,2.0,97,0.00,,,0.00,Wunderground v.1.15,2013-01-11 13:10:00,
2013-01-11 07:12:00,43.3,42.5,29.96,South,186,0.0,2.0,97,0.00,,,0.00,Wunderground v.1.15,2013-01-11 13:12:00,
2013-01-11 07:14:00,43.3,42.5,29.96,South,186,0.0,2.0,97,0.00,,,0.00,Wunderground v.1.15,2013-01-11 13:14:00,
2013-01-11 07:18:00,43.2,42.4,29.95,South,186,0.0,2.0,97,0.00,,,0.00,Wunderground v.1.15,2013-01-11 13:18:00,
2013-01-11 07:23:00,43.1,42.0,29.96,South,186,0.0,0.0,97,0.00,,,0.00,weatherlink.com 1.10,2013-01-11 13:23:00,
2013-01-11 07:24:00,43.1,42.3,29.96,South,186,0.0,2.0,97,0.00,,,0.00,Wunderground v.1.15,2013-01-11 13:24:00,
2013-01-11 07:26:00,43.1,42.3,29.96,South,186,0.0,2.0,97,0.00,,,0.00,Wunderground v.1.15,2013-01-11 13:26:00,
2013-01-11 07:38:00,42.9,42.0,29.96,South,186,0.0,0.0,97,0.00,,,0.00,weatherlink.com 1.10,2013-01-11 13:38:00,
2013-01-11 07:53:00,43.2,43.0,29.97,South,187,0.0,0.0,98,0.00,,,0.00,weatherlink.com 1.10,2013-01-11 13:53:00,
2013-01-11 08:08:00,43.3,43.0,29.97,South,187,0.0,0.0,98,0.00,,,0.00,weatherlink.com 1.10,2013-01-11 14:08:00,
2013-01-11 08:23:00,43.8,43.0,29.97,South,187,0.0,0.0,98,0.00,,,0.00,weatherlink.com 1.10,2013-01-11 14:23:00,
2013-01-11 08:38:00,44.3,44.0,29.98,West,266,0.0,1.0,98,0.00,,,0.00,weatherlink.com 1.10,2013-01-11 14:38:00,
2013-01-11 08:53:00,44.9,44.0,29.98,West,266,0.0,0.0,98,0.00,,,0.00,weatherlink.com 1.10,2013-01-11 14:53:00,
2013-01-11 09:08:00,46.7,46.0,29.98,SE,132,0.0,1.0,98,0.00,,,0.00,weatherlink.com 1.10,2013-01-11 15:08:00,
2013-01-11 09:23:00,47.4,47.0,29.98,ENE,78,0.0,1.0,98,0.00,,,0.00,weatherlink.com 1.10,2013-01-11 15:23:00,
2013-01-11 09:38:00,49.0,48.0,29.97,East,82,0.0,1.0,97,0.00,,,0.00,weatherlink.com 1.10,2013-01-11 15:38:00,
2013-01-11 09:53:00,50.3,49.0,29.98,South,174,0.0,2.0,94,0.00,,,0.00,weatherlink.com 1.10,2013-01-11 15:53:00,
2013-01-11 10:08:00,51.4,49.0,29.99,South,176,0.0,1.0,92,0.00,,,0.00,weatherlink.com 1.10,2013-01-11 16:08:00,
2013-01-11 10:23:00,52.5,50.0,29.99,SSE,150,0.0,2.0,90,0.00,,,0.00,weatherlink.com 1.10,2013-01-11 16:23:00,
2013-01-11 10:38:00,53.4,50.0,29.99,SSW,210,0.0,3.0,88,0.00,,,0.00,weatherlink.com 1.10,2013-01-11 16:38:00,
2013-01-11 10:53:00,55.5,50.0,29.98,South,169,2.0,3.0,82,0.00,,,0.00,weatherlink.com 1.10,2013-01-11 16:53:00,
2013-01-11 11:08:00,56.9,51.0,29.97,SSE,153,0.0,3.0,80,0.00,,,0.00,weatherlink.com 1.10,2013-01-11 17:08:00,
2013-01-11 11:23:00,57.5,51.0,29.96,ESE,119,0.0,0.0,79,0.00,,,0.00,weatherlink.com 1.10,2013-01-11 17:23:00,
2013-01-11 11:38:00,58.4,52.0,29.95,South,187,0.0,2.0,78,0.00,,,0.00,weatherlink.com 1.10,2013-01-11 17:38:00,
2013-01-11 11:53:00,59.4,51.0,29.95,SSE,153,0.0,1.0,73,0.00,,,0.00,weatherlink.com 1.10,2013-01-11 17:53:00,
2013-01-11 12:08:00,60.3,50.0,29.94,SSE,160,0.0,2.0,70,0.00,,,0.00,weatherlink.com 1.10,2013-01-11 18:08:00,
2013-01-11 12:23:00,60.9,50.0,29.93,SSE,159,2.0,6.0,68,0.00,,,0.00,weatherlink.com 1.10,2013-01-11 18:23:00,
2013-01-11 12:38:00,60.8,50.0,29.92,SSE,162,2.0,5.0,68,0.00,,,0.00,weatherlink.com 1.10,2013-01-11 18:38:00,
2013-01-11 12:53:00,61.6,50.0,29.92,SSE,165,1.0,6.0,67,0.00,,,0.00,weatherlink.com 1.10,2013-01-11 18:53:00,
2013-01-11 13:08:00,61.5,51.0,29.92,SSE,153,1.0,3.0,68,0.00,,,0.00,weatherlink.com 1.10,2013-01-11 19:08:00,
2013-01-11 13:23:00,60.8,50.0,29.91,SW,217,0.0,4.0,67,0.00,,,0.00,weatherlink.com 1.10,2013-01-11 19:23:00,
2013-01-11 13:38:00,60.3,50.0,29.90,SSW,204,0.0,4.0,69,0.00,,,0.00,weatherlink.com 1.10,2013-01-11 19:38:00,
2013-01-11 13:53:00,61.6,51.0,29.90,SW,236,1.0,3.0,69,0.00,,,0.00,weatherlink.com 1.10,2013-01-11 19:53:00,
2013-01-11 14:09:00,62.2,50.0,29.90,SE,136,1.0,4.0,65,0.00,,,0.00,weatherlink.com 1.10,2013-01-11 20:09:00,
2013-01-11 14:24:00,62.5,52.0,29.90,SSE,162,0.0,3.0,69,0.00,,,0.00,weatherlink.com 1.10,2013-01-11 20:24:00,
2013-01-11 14:39:00,62.2,51.0,29.89,South,186,0.0,4.0,68,0.00,,,0.00,weatherlink.com 1.10,2013-01-11 20:39:00,
2013-01-11 14:54:00,62.1,51.0,29.89,SSE,148,4.0,4.0,68,0.00,,,0.00,weatherlink.com 1.10,2013-01-11 20:54:00,
2013-01-11 15:09:00,60.7,52.0,29.89,SSE,153,0.0,1.0,72,0.00,,,0.00,weatherlink.com 1.10,2013-01-11 21:09:00,
2013-01-11 15:24:00,59.9,52.0,29.88,SSE,150,0.0,1.0,74,0.00,,,0.00,weatherlink.com 1.10,2013-01-11 21:24:00,
2013-01-11 15:39:00,59.5,52.0,29.88,SSE,157,0.0,1.0,75,0.00,,,0.00,weatherlink.com 1.10,2013-01-11 21:39:00,
2013-01-11 15:54:00,59.0,51.0,29.88,SSE,157,0.0,0.0,76,0.00,,,0.00,weatherlink.com 1.10,2013-01-11 21:54:00,
2013-01-11 16:09:00,58.7,52.0,29.88,SSE,157,0.0,0.0,77,0.00,,,0.00,weatherlink.com 1.10,2013-01-11 22:09:00,
2013-01-11 16:24:00,59.0,52.0,29.87,SSE,157,0.0,0.0,78,0.00,,,0.00,weatherlink.com 1.10,2013-01-11 22:24:00,
2013-01-11 16:39:00,58.8,52.0,29.87,SSE,157,0.0,0.0,79,0.00,,,0.00,weatherlink.com 1.10,2013-01-11 22:39:00,
2013-01-11 16:54:00,57.8,52.0,29.87,SSE,158,0.0,1.0,81,0.00,,,0.00,weatherlink.com 1.10,2013-01-11 22:54:00,
2013-01-11 17:09:00,56.6,52.0,29.87,SSE,157,0.0,1.0,84,0.00,,,0.00,weatherlink.com 1.10,2013-01-11 23:09:00,
2013-01-11 17:24:00,56.0,51.0,29.86,SE,134,0.0,1.0,84,0.00,,,0.00,weatherlink.com 1.10,2013-01-11 23:24:00,
2013-01-11 17:39:00,55.9,51.0,29.86,SE,134,0.0,0.0,84,0.00,,,0.00,weatherlink.com 1.10,2013-01-11 23:39:00,
2013-01-11 17:54:00,55.3,51.0,29.87,SE,134,0.0,0.0,85,0.00,,,0.00,weatherlink.com 1.10,2013-01-11 23:54:00,
2013-01-11 18:09:00,53.7,51.0,29.87,SE,134,0.0,0.0,89,0.00,,,0.00,weatherlink.com 1.10,2013-01-12 00:09:00,
2013-01-11 18:34:00,52.5,50.2,29.88,SW,235,0.0,0.0,92,0.00,,,0.00,Wunderground v.1.15,2013-01-12 00:34:00,
2013-01-11 18:38:00,52.4,50.1,29.88,SW,235,0.0,0.0,92,0.00,,,0.00,Wunderground v.1.15,2013-01-12 00:38:00,
2013-01-11 18:44:00,52.0,49.7,29.88,WSW,245,0.0,0.0,92,0.00,,,0.00,Wunderground v.1.15,2013-01-12 00:44:00,
2013-01-11 18:50:00,51.7,49.5,29.88,WSW,245,0.0,0.0,92,0.00,,,0.00,Wunderground v.1.15,2013-01-12 00:50:00,
2013-01-11 18:52:00,51.7,49.7,29.88,WSW,245,0.0,0.0,93,0.00,,,0.00,Wunderground v.1.15,2013-01-12 00:52:00,
2013-01-11 18:54:00,51.7,49.7,29.88,WSW,245,0.0,0.0,93,0.00,,,0.00,Wunderground v.1.15,2013-01-12 00:54:00,
2013-01-11 18:58:00,51.4,49.4,29.88,WSW,245,0.0,0.0,93,0.00,,,0.00,Wunderground v.1.15,2013-01-12 00:58:00,
2013-01-11 19:00:00,51.4,49.4,29.87,WSW,245,0.0,0.0,93,0.00,,,0.00,Wunderground v.1.15,2013-01-12 01:00:00,
2013-01-11 19:06:00,51.3,49.3,29.88,WSW,245,0.0,1.0,93,0.00,,,0.00,Wunderground v.1.15,2013-01-12 01:06:00,
2013-01-11 19:08:00,51.2,49.2,29.88,WSW,245,0.0,1.0,93,0.00,,,0.00,Wunderground v.1.15,2013-01-12 01:08:00,
2013-01-11 19:12:00,51.0,49.0,29.88,WSW,245,0.0,1.0,93,0.00,,,0.00,Wunderground v.1.15,2013-01-12 01:12:00,
2013-01-11 19:14:00,50.9,48.9,29.88,WSW,245,0.0,1.0,93,0.00,,,0.00,Wunderground v.1.15,2013-01-12 01:14:00,
2013-01-11 19:16:00,50.9,49.2,29.88,WSW,245,0.0,1.0,94,0.00,,,0.00,Wunderground v.1.15,2013-01-12 01:16:00,
2013-01-11 19:18:00,50.9,49.2,29.88,WSW,245,0.0,1.0,94,0.00,,,0.00,Wunderground v.1.15,2013-01-12 01:18:00,
2013-01-11 19:20:00,50.8,49.1,29.88,WSW,245,0.0,1.0,94,0.00,,,0.00,Wunderground v.1.15,2013-01-12 01:20:00,
2013-01-11 19:24:00,50.7,49.0,29.88,WSW,245,0.0,1.0,94,0.00,,,0.00,Wunderground v.1.15,2013-01-12 01:24:00,
2013-01-11 19:30:00,50.5,48.8,29.88,WSW,245,0.0,1.0,94,0.00,,,0.00,Wunderground v.1.15,2013-01-12 01:30:00,
2013-01-11 19:34:00,50.3,48.6,29.88,WSW,245,0.0,1.0,94,0.00,,,0.00,Wunderground v.1.15,2013-01-12 01:34:00,
2013-01-11 19:36:00,50.3,48.9,29.88,WSW,245,0.0,1.0,95,0.00,,,0.00,Wunderground v.1.15,2013-01-12 01:36:00,
2013-01-11 19:40:00,50.4,49.0,29.87,WSW,245,0.0,1.0,95,0.00,,,0.00,Wunderground v.1.15,2013-01-12 01:40:00,
2013-01-11 19:46:00,50.6,49.2,29.88,WSW,245,0.0,1.0,95,0.00,,,0.00,Wunderground v.1.15,2013-01-12 01:46:00,
2013-01-11 19:48:00,50.6,49.2,29.88,SSW,210,0.0,1.0,95,0.00,,,0.00,Wunderground v.1.15,2013-01-12 01:48:00,
2013-01-11 19:55:00,50.9,50.0,29.89,SSW,210,0.0,0.0,95,0.00,,,0.00,weatherlink.com 1.10,2013-01-12 01:55:00,
2013-01-11 20:10:00,53.3,52.0,29.88,SSE,163,0.0,3.0,94,0.00,,,0.00,weatherlink.com 1.10,2013-01-12 02:10:00,
2013-01-11 20:25:00,55.7,52.0,29.89,SSE,154,0.0,2.0,87,0.00,,,0.00,weatherlink.com 1.10,2013-01-12 02:25:00,
2013-01-11 20:40:00,56.8,52.0,29.89,SE,125,0.0,3.0,85,0.00,,,0.00,weatherlink.com 1.10,2013-01-12 02:40:00,
2013-01-11 20:55:00,57.3,53.0,29.88,SE,134,0.0,2.0,84,0.00,,,0.00,weatherlink.com 1.10,2013-01-12 02:55:00,
2013-01-11 21:10:00,57.4,52.0,29.88,SSE,153,0.0,2.0,83,0.00,,,0.00,weatherlink.com 1.10,2013-01-12 03:10:00,
2013-01-11 21:25:00,57.2,52.0,29.89,SSE,162,0.0,0.0,84,0.00,,,0.00,weatherlink.com 1.10,2013-01-12 03:25:00,
2013-01-11 21:40:00,56.8,52.0,29.89,SSE,166,0.0,0.0,85,0.00,,,0.00,weatherlink.com 1.10,2013-01-12 03:40:00,
2013-01-11 21:55:00,57.4,53.0,29.89,SE,134,0.0,1.0,85,0.00,,,0.00,weatherlink.com 1.10,2013-01-12 03:55:00,
2013-01-11 22:10:00,58.7,53.0,29.90,SSW,210,0.0,1.0,82,0.00,,,0.00,weatherlink.com 1.10,2013-01-12 04:10:00,
2013-01-11 22:25:00,59.4,54.0,29.89,SSE,150,1.0,2.0,81,0.00,,,0.00,weatherlink.com 1.10,2013-01-12 04:25:00,
2013-01-11 22:40:00,60.1,54.0,29.89,SSE,149,0.0,3.0,80,0.00,,,0.00,weatherlink.com 1.10,2013-01-12 04:40:00,
2013-01-11 22:55:00,60.2,54.0,29.90,SSE,150,0.0,2.0,79,0.00,,,0.00,weatherlink.com 1.10,2013-01-12 04:55:00,
2013-01-11 23:10:00,60.2,54.0,29.90,SSE,149,0.0,2.0,79,0.00,,,0.00,weatherlink.com 1.10,2013-01-12 05:10:00,
2013-01-11 23:25:00,59.9,53.0,29.89,SSW,195,0.0,0.0,79,0.00,,,0.00,weatherlink.com 1.10,2013-01-12 05:25:00,
2013-01-11 23:40:00,59.7,54.0,29.89,SSE,155,0.0,3.0,81,0.00,,,0.00,weatherlink.com 1.10,2013-01-12 05:40:00,
2013-01-11 23:55:00,58.6,53.0,29.90,SSW,207,0.0,0.0,81,0.00,,,0.00,weatherlink.com 1.10,2013-01-12 05:55:00,